星链-4178 (STARLINK-4178 )

导读

STARLINK-4178是美国太空探索技术公司(SpaceX)星链(Starlink)互联网星座组网卫星,于2022年7月24日在美国发射入轨。星链星座旨在为全球提供高速低延迟卫星互联网服务,该卫星属于星链项目批量生产发射的卫星,承担全球网络覆盖补网组网任务,推进星座部署进程。

基本信息
目录编号:
53277
目录名称:
STARLINK-4178
国际标识:
2022-086AM
轨道中心:
EARTH
卫星名称:
星链-4178
卫星全名:
星链-4178 (STARLINK-4178 )
卫星状态:
在轨 (已飞行1504 天)
发射日期:
2022-07-24 UTC
国别 :
美国 (US)
星等 :
--
轨道信息
数据来源 国际轨道数据 AOE轨道数据
星历时间 2026-09-04T07:43:56+0800
1天前
查看轨道信息
2026-08-29T22:00:00+0800
6天前
查看轨道信息
半长轴 6848.853km 6848.852km
偏心率 0.0001013 0.0001002
轨道倾角 53.159° 53.161°
近地点辐角 74.727° 102.574°
升交点赤经 93.233° 118.399°
平近点角 285.385° 314.244°
近地点 470.022km 470.028km
远地点 471.41km 471.402km
周期 94.013分钟 94.013分钟
每日圈数 15.317081 15.317085
详细信息
固有亮度:
5
最大亮度:
2.5
卫星平台:
Starlink v1.5
覆盖范围:
全球
运营商:
太空探索技术公司
运营商所在国:
美国
制造商(研发单位):
太空探索技术公司
制造商所在国:
美国
使用方式:
暂无
卫星简介
星链(Starlink)计划是由太空探索技术公司(SpaceX)提出的一个巨型低轨卫星互联网星座项目,计划在2019年至2024年间在太空搭建由约1.2万颗卫星组成的“星链”网络,其中1584颗将部署在地球上空550千米处的近地轨道,并从2020年开始工作。该卫星仍在工作。
2D轨道图
3D轨道图
轨道高度分析图
轨道倾角分析图
轨道综合分析图
查看轨道综合分析图
交会数据列表
事件ID 空间交会对象 最接近时刻(TCA) 交会距离 交会风险概率(CRP) 交会风险指数(CRI) 操作
CDM_260906-161805-327706-264221
2026-09-06T
16:18:14+0000
1.360 km
极远距离
8.291016E-6 低风险 0.53
CDM_260906-144405-327706-264221
2026-09-06T
14:44:13+0000
1.383 km
极远距离
7.846426E-6 低风险 0.53
CDM_260907-005505-327706-264221
2026-09-07T
00:55:20+0000
1.482 km
极远距离
6.168056E-6 低风险 0.51
CDM_260905-145505-327705-850122
TLV R/B (58501)
2026-09-05T
14:55:57+0000
1.861 km
极远距离
2.964986E-6 低风险 0.44
CDM_260906-192205-327706-757821
2026-09-06T
19:22:02+0000
2.283 km
极远距离
1.998757E-6 低风险 0.41
CDM_260906-232105-327706-264221
2026-09-06T
23:21:19+0000
2.378 km
极远距离
1.732404E-6 低风险 0.4
CDM_260907-022905-327706-264221
2026-09-07T
02:29:21+0000
2.682 km
极远距离
1.403227E-6 低风险 0.38
CDM_260905-181805-327706-760821
2026-09-05T
18:18:27+0000
2.801 km
极远距离
1.400644E-6 低风险 0.38
CDM_260907-175505-327706-486221
2026-09-07T
17:55:25+0000
2.733 km
极远距离
9.45534E-7 极低风险 0.35
CDM_260906-055805-327706-822121
2026-09-06T
05:58:21+0000
2.981 km
极远距离
9.135636E-7 极低风险 0.34